SCP
0 0 0 0 0 0 0 0 0 0 0 0 0 0 0 0 0 0 0 0 0 0 0 0 0 0 0 0 0 0 0 0 0 0 0 0 0 0 0 0 0 0 0
0 0 0 0 0 0 0 0 0 0 0 0 0 0 0 0 0 0 0 0 0 0 0 0 0 0 0 0 0 0 0 0 0 0 0 0 0 0 0 0 0 0 0
0 0 0 0 0 0 0 0 0 0 0 0 0 0 0 0 0 0 0 0 0 0 0 0 0 0 0 0 0 0 0 0 0 0 0 0 0 0 0 0 0 0 0
0 0 0 0 0 0 0 0 0 0 0 0 0 0 0 0 0 0 0 0 0 0 0 0 0 0 0 0 0 0 0 0 0 0 0 0 0 0 0 0 0 0 0
0 0 0 0 0 0 0 0 0 0 0 0 0 0 0 0 0 0 0 0 0 0 0 0 0 0 0 0 0 0 0 0 0 0 0 0 0 0 0 0 0 0 0
0 0 0 0 0 0 0 0 0 0 0 0 0 0 0 0 0 0 0 0 0 0 0 0 0 0 0 0 0 0 0 0 0 0 0 0 0 0 0 0 0 0 0
0 0 0 0 0 0 0 0 0 0 0 0 0 0 0 0 0 0 0 0 0 0 0 0 0 0 0 0 0 0 0 0 0 0 0 0 0 0 0 0 0 0 0
0 0 0 0 0 0 0 0 0 0 0 0 0 0 0 0 0 0 0 0 0 0 0 0 0 0 0 0 0 0 0 0 0 0 0 0 0 0 0 0 0 0 0
0 0 0 0 0 0 0 0 0 0 0 0 0 0 0 0 0 0 0 0 0 0 0 0 0 0 0 0 0 0 0 0 0 0 0 0 0 0 0 0 0 0 0
0 0 0 0 0 0 0 0 0 0 0 0 0 0 0 0 0 0 0 0 0 0 0 0 0 0 0 0 0 0 0 0 0 0 0 0 0 0 0 0 0 0 0
0 0 0 0 0 0 0 0 0 0 0 0 0 0 0 0 0 0 0 0 0 0 0 0 0 0 0 0 0 0 0 0 0 0 0 0 0 0 0 0 0 0 0
0 0 0 0 0 0 0 0 0 0 0 0 0 0 0 0 0 0 0 0 0 0 0 0 0 0 0 0 0 0 0 0 0 0 0 0 0 0 0 0 0 0 0
0 0 -0 -0 0 0 0 0 0 0 0 0 0 0 0 0 0 0 0 0 0 0 0 0 0 0 0 0 0 0 0 0 0 0 0 0 0 0 0 0 0 0 0
0 0 0 0 0 0 0 0 0 0 0 0 0 0 0 0 0 0 0 0 0 0 0 0 0 0 0 0 0 0 0 0 0 0 0 0 0 0 0 0 0 0 0
0 0 0 0 0 0 0 0 0 0 0 0 0 0 0 0 0 0 0 0 0 0 0 0 0 0 0 0 0 0 0 0 0 0 0 0 0 0 0 0 0 0 0
0 0 0 0 0 0 0 0 0 0 0 0 0 0 0 0 0 0 0 0 0 0 0 0 0 0 0 0 0 0 0 0 0 0 0 0 0 0 0 0 0 0 0
0 0 0 0 0 0 0 0 0 0 0 0 0 0 0 0 0 0 0 0 0 0 0 0 0 0 0 0 0 0 0 0 0 0 0 0 0 0 0 0 0 0 0
0 0 0 0 0 0 0 0 0 0 0 0 0 0 0 0 0 0 0 0 0 0 0 0 0 0 0 0 0 0 0 0 0 0 0 0 0 0 0 0 0 0 0
0 0 0 0 0 0 0 0 0 0 0 0 0 0 0 0 0 0 0 0 0 0 0 0 0 0 0 0 0 0 0 0 0 0 0 0 0 0 0 0 0 0 0
0 0 0 0 0 0 0 0 0 0 0 0 0 0 0 0 0 0 0 0 0 0 0 0 0 0 0 0 0 0 0 0 0 0 0 0 0 0 0 0 0 0 0
0 0 0 0 0 0 0 0 0 0 0 0 0 0 0 0 0 0 0 0 0 0 0 0 0 0 0 0 0 0 0 0 0 0 0 0 0 0 0 0 0 0 0
0 0 0 0 0 0 0 0 0 0 0 0 0 0 0 0 0 0 0 0 0 0 0 0 0 0 0 0 0 0 0 0 0 0 0 0 0 0 0 0 0 0 0
0 0 0 0 0 0 0 0 0 0 0 0 0 0 0 0 0 0 0 0 0 0 0 0 0 0 0 0 0 0 0 0 0 0 0 0 0 0 0 0 0 0 0
0 0 0 0 0 0 0 0 0 0 0 0 0 0 0 0 0 0 0 0 0 0 0 0 0 0 0 0 0 0 0 0 0 0 0 0 0 0 0 0 0 0 0
0 0 0 0 0 0 0 0 0 0 0 0 0 0 0 0 0 0 0 0 0 0 0 0 0 0 0 0 0 0 0 0 0 0 0 0 0 0 0 0 0 0 0
0 0 0 0 0 0 0 0 0 0 0 0 0 0 0 0 0 0 0 0 0 0 0 0 0 0 0 0 0 0 0 0 0 0 0 0 0 0 0 0 0 0 0
Wind_Speed
2 2 2 2 2 1 1 1 1 1 1 2 2 3 3 3 2 2 2 6 8 8 9 10 11 10 9 9 9 9 9 9 9 9 9 10 11 11 11 11 11 11 10
2 2 2 2 2 1 1 1 1 2 2 2 2 2 3 3 2 2 2 4 6 7 8 10 11 11 10 10 9 9 9 9 9 10 10 10 10 11 11 11 11 10 10
2 2 2 2 2 2 1 1 1 1 1 2 2 2 2 3 2 2 2 2 2 5 7 9 10 11 11 10 10 10 9 9 9 10 10 10 10 11 11 11 11 10 10
3 2 2 2 3 2 1 0 0 0 1 1 1 1 1 2 2 2 1 1 1 1 4 7 9 10 11 10 10 10 10 9 9 10 10 10 10 11 11 11 11 10 10
3 2 2 2 3 2 1 1 0 0 0 1 1 2 1 2 2 2 2 2 2 2 2 4 7 9 10 11 10 11 11 10 11 10 10 10 10 11 11 11 11 10 11
4 3 2 3 3 2 2 1 1 0 0 1 1 1 1 2 2 2 2 2 2 2 2 2 3 5 9 10 10 11 11 11 12 12 12 11 11 11 12 12 11 11 11
4 3 2 3 3 2 2 2 1 1 1 1 0 1 1 1 2 2 2 2 2 2 2 3 3 3 3 9 10 11 12 12 13 13 13 13 12 12 13 12 12 12 12
4 3 3 2 2 2 3 3 2 1 1 1 1 1 1 2 1 1 1 2 2 2 2 3 3 4 4 3 6 11 11 11 13 14 14 14 13 13 13 13 13 13 12
3 3 3 2 2 2 2 2 1 1 1 1 1 1 1 1 2 2 1 1 2 2 2 2 3 4 5 4 4 9 11 12 13 15 15 15 14 14 14 14 14 13 13
4 3 3 3 2 2 2 2 2 1 1 0 1 1 0 1 0 2 2 1 1 1 1 2 2 3 4 4 6 9 12 12 14 15 16 16 16 16 15 15 14 14 14
4 4 3 3 2 2 2 2 2 1 0 0 0 0 1 1 0 1 2 2 2 1 2 3 2 3 4 5 5 8 11 12 14 15 16 17 17 18 17 16 16 16 15
3 4 3 3 2 2 2 2 1 1 1 0 0 0 0 0 0 1 1 1 2 2 2 2 3 3 3 4 6 8 11 12 13 15 15 15 17 18 19 19 18 18 17
2 4 3 3 2 2 2 1 2 2 1 1 0 0 1 1 1 1 1 1 1 2 2 2 2 2 3 3 4 8 10 12 13 14 14 15 15 16 18 19 20 20 19
3 3 3 2 2 2 2 2 1 1 1 1 1 1 1 1 1 2 2 1 1 2 2 3 2 2 2 2 4 6 6 10 12 13 14 15 15 16 17 18 19 19 20
2 2 2 2 3 3 2 2 1 2 2 1 1 1 1 1 1 2 2 2 2 2 2 2 2 2 2 2 4 4 5 8 11 13 14 15 15 16 16 17 17 17 16
2 2 2 2 3 3 2 2 1 2 2 2 1 1 2 1 2 1 2 2 3 3 3 2 2 2 3 4 4 4 5 8 10 11 13 14 15 15 16 16 16 16 16
2 2 2 2 2 2 2 2 2 1 2 3 3 2 3 2 2 2 1 2 2 3 4 3 2 2 2 3 3 3 4 5 5 10 12 13 14 15 15 16 16 16 16
2 2 1 2 2 2 2 2 2 2 2 3 3 3 3 2 2 2 2 2 2 3 3 4 3 2 3 3 3 4 4 4 4 8 11 13 14 15 15 15 16 16 17
2 2 1 2 2 2 2 2 2 2 3 3 3 3 3 3 3 2 2 2 2 3 3 3 3 2 2 2 2 3 4 3 4 6 9 11 13 14 15 15 15 16 16
2 2 2 2 3 3 3 3 2 3 3 3 3 3 3 3 3 3 3 3 3 2 2 3 3 2 2 2 2 2 3 2 3 4 5 6 9 12 14 14 15 15 16
3 3 3 3 3 3 3 3 2 3 3 4 4 3 3 4 5 4 3 3 3 2 2 3 3 3 3 2 2 2 3 3 4 3 3 3 4 5 7 11 14 16 16
3 3 3 4 4 4 6 6 3 2 2 3 4 4 4 4 6 7 7 5 3 3 3 3 3 4 5 4 3 3 3 2 3 2 2 4 3 5 5 6 10 14 16
3 4 4 4 5 6 9 8 5 2 2 3 3 3 4 4 6 4 6 7 4 5 5 4 5 5 5 4 3 4 4 4 4 2 2 4 3 5 5 6 11 13 15
4 4 5 5 5 7 9 7 6 2 2 3 3 3 3 4 4 4 3 4 4 3 4 3 4 5 6 5 5 5 5 4 4 3 3 4 3 4 4 5 10 13 14
4 4 4 5 5 7 9 7 4 1 2 4 4 3 3 4 7 7 4 4 5 4 4 5 5 7 8 9 6 3 3 4 4 3 3 4 3 3 3 5 6 11 13
4 4 5 5 5 7 9 9 5 2 2 3 3 3 5 5 7 6 3 3 5 5 4 5 5 6 6 6 6 4 4 4 3 3 3 3 2 2 3 3 3 4 7
Wind_Direction
327 326 317 313 299 284 266 261 251 235 215 207 207 201 221 236 240 228 245 259 251 236 219 205 198 196 194 195 195 189 185 180 174 169 166 162 159 153 149 147 146 147 146
328 330 326 325 316 294 269 255 244 229 221 206 217 211 220 232 237 232 229 259 260 241 221 208 201 200 198 199 197 191 188 184 178 174 170 166 160 157 157 153 152 151 150
342 341 331 332 324 312 309 287 274 228 222 215 220 222 218 228 232 228 223 227 255 243 221 209 202 201 202 202 199 193 190 185 180 177 174 169 166 164 164 162 160 159 157
357 357 351 339 332 336 352 346 51 233 231 218 226 235 230 228 232 226 212 214 212 231 223 212 201 202 204 205 204 198 192 187 183 181 179 173 171 171 171 170 170 169 165
4 11 4 348 347 352 356 334 63 162 258 259 240 226 227 236 245 246 228 216 200 198 199 219 209 205 205 207 208 204 198 193 190 189 186 181 179 178 178 178 177 177 173
5 10 7 3 6 8 1 0 355 49 285 277 269 251 233 236 241 240 239 220 204 202 194 200 205 212 212 209 209 209 205 200 198 197 196 192 187 186 186 185 185 184 180
4 13 13 9 14 19 4 2 7 26 3 339 19 336 309 252 231 230 224 220 216 214 195 197 197 196 210 216 213 212 210 208 205 202 203 200 194 194 194 192 191 190 188
1 13 18 9 9 16 18 18 25 28 353 18 68 69 351 342 314 263 212 217 218 207 205 209 201 202 201 199 213 214 212 211 212 209 208 205 199 198 198 198 198 198 196
1 11 12 10 9 23 12 2 16 58 13 350 27 118 135 234 305 319 270 226 210 201 206 200 210 212 209 207 208 217 214 211 214 214 214 211 206 204 203 203 204 204 202
359 8 12 12 12 17 12 347 24 24 90 20 342 5 178 190 164 326 328 328 267 226 228 234 225 218 213 211 213 213 214 212 214 219 219 217 212 210 210 209 209 208 206
356 2 5 8 9 8 9 12 14 23 61 145 210 351 16 21 99 180 308 331 335 287 244 238 233 225 216 215 214 218 216 215 216 220 222 221 218 216 214 213 213 212 211
339 351 357 1 358 358 360 6 15 23 17 49 104 124 148 177 206 176 243 286 294 290 268 246 235 230 223 217 226 227 221 217 220 223 224 224 222 220 219 217 216 216 215
326 331 347 347 347 343 350 7 21 15 17 36 10 267 233 226 215 197 204 250 271 289 295 275 247 236 235 222 234 236 230 223 221 224 225 225 224 223 222 221 220 219 217
286 309 331 337 344 353 7 17 14 351 10 3 343 311 262 257 229 209 203 202 264 287 286 275 287 248 247 238 244 242 245 235 227 226 226 226 225 223 223 222 223 223 221
288 320 337 347 352 1 6 15 8 352 351 334 310 304 282 268 257 236 220 208 207 246 268 267 273 281 262 253 247 238 240 243 236 230 228 227 227 225 223 222 222 221 220
310 335 349 356 360 3 7 13 353 341 355 336 313 313 302 277 273 255 233 227 218 216 248 258 251 275 284 278 261 246 243 250 246 239 233 229 228 227 224 221 219 217 216
315 330 337 345 350 355 356 359 339 336 341 332 333 322 306 294 288 277 250 229 225 218 245 265 256 265 266 277 286 266 252 242 246 242 237 233 229 228 226 222 219 216 214
304 307 326 339 338 340 339 336 324 329 323 319 318 317 308 307 295 282 267 247 233 224 232 258 266 263 259 270 275 275 267 256 245 248 242 237 231 228 227 225 221 217 214
289 298 308 315 316 318 317 313 303 304 302 296 296 298 300 302 293 284 274 265 252 244 231 245 265 259 264 271 277 275 267 261 256 253 247 240 232 227 225 224 222 219 215
263 275 280 284 290 294 297 298 297 299 302 302 294 286 287 278 270 273 269 258 247 245 243 249 260 268 267 270 262 269 279 262 265 262 251 243 235 230 227 224 221 219 217
254 263 277 287 291 286 276 278 279 287 301 314 317 309 299 298 292 287 276 258 236 232 242 250 261 266 268 263 253 248 263 279 268 243 247 242 234 232 226 226 224 221 218
259 263 269 277 288 283 297 299 282 272 291 303 312 316 313 319 330 335 333 314 254 234 239 242 252 263 266 256 252 249 253 268 274 246 234 252 225 238 232 224 223 219 217
250 259 264 266 275 281 291 297 294 270 268 281 289 302 314 322 333 327 331 339 326 296 261 245 253 258 259 250 248 254 247 244 247 251 247 263 233 243 239 232 225 222 220
241 250 259 261 268 277 287 291 289 274 268 277 275 273 284 301 312 324 323 327 319 303 287 263 249 260 262 260 247 251 256 261 259 247 222 251 238 241 243 235 229 224 222
244 244 251 257 262 276 284 284 275 231 265 281 279 272 272 282 305 325 326 318 316 308 294 283 276 282 283 279 266 252 248 251 263 250 211 232 244 244 246 242 233 226 226
245 254 259 253 251 264 278 280 265 204 251 275 287 282 277 280 297 315 310 304 305 301 308 313 309 306 299 293 283 249 241 248 256 260 221 214 231 229 265 248 233 226 228